Flag for Greece Weather past 2 weeks in Iráklion, Crete, Greece

Now
59 °F

Light rain. Passing clouds.


Feels Like: 56 °F
Forecast: 58 / 65 °F
Wind: 18 mph from South

Location: Heraklion Airport

Current Time: Dec 28, 2014 at 10:13:41 PM

Latest Report: Dec 28, 2014 at 9:50 PM


Visibility: N/A

Pressure: 29.89 "Hg

Humidity: 72%

Dew point: 50 °F

Location of IráklionLocation

Historic Weather in Iráklion — Graph

°F

Iráklion temperature yesterday

Maximum temperature yesterday: 63 °F (at 12:50 PM)
Minimum temperature yesterday: 52 °F (at 9:50 PM)
Average temperature yesterday: 58 °F

Past Weeks' High & Low Weather Summary

 TemperatureHumidityPressure
High68 °F (Dec 17, 1:50 PM)94% (Dec 14, 8:50 AM)30.33 "Hg (Dec 14, 8:50 AM)
Low45 °F (Dec 28, 6:50 AM)45% (Dec 28, 4:50 PM)29.80 "Hg (Dec 27, 1:50 PM)
Average57 °F74%30.13 "Hg
* Reported Dec 13 8:20 PM — Dec 28 8:50 PM, Iráklion, Weather by CustomWeather, © 2014

Note: Actual official high and low records may vary slightly from our data, if they occured in-between our weather recording intervals... More about our weather records

Advertising

Iráklion weather history for previous 24 hours

 ConditionsComfort  
Time TempWeatherWind HumidityBarometerVisibility
8:50 PM
Dec 28
59 °FPassing clouds.14 mph68%29.92 "HgN/A
8:20 PM59 °FPassing clouds.15 mph63%29.92 "HgN/A
7:50 PM59 °FPassing clouds.14 mph63%29.92 "HgN/A
7:20 PM59 °FPassing clouds.20 mph51%29.92 "HgN/A
6:50 PM59 °FPassing clouds.21 mph51%29.92 "HgN/A
6:20 PM59 °FPassing clouds.24 mph51%29.89 "HgN/A
5:50 PM59 °FPassing clouds.22 mph51%29.89 "HgN/A
5:20 PM59 °FPassing clouds.20 mph45%29.89 "HgN/A
4:50 PM59 °FPassing clouds.15 mph45%29.89 "HgN/A
4:20 PM63 °FPassing clouds.12 mph52%29.92 "HgN/A
3:50 PM63 °FPassing clouds.10 mph52%29.92 "HgN/A
3:20 PM66 °FPassing clouds.7 mph78%29.92 "HgN/A
2:50 PM66 °FPassing clouds.7 mph78%29.92 "HgN/A
2:20 PM64 °FPassing clouds.3 mph68%29.92 "HgN/A
1:50 PM64 °FPassing clouds.3 mph68%29.92 "HgN/A
1:20 PM61 °FPassing clouds.3 mph68%29.92 "HgN/A
12:50 PM61 °FPassing clouds.3 mph68%29.92 "HgN/A
12:20 PM61 °FPassing clouds.6 mph68%29.95 "HgN/A
11:50 AM61 °FPassing clouds.3 mph68%29.95 "HgN/A
11:20 AM61 °FThunderstorms. Cloudy.2 mph63%29.98 "HgN/A
10:50 AM61 °FPassing clouds.6 mph63%29.98 "HgN/A
10:20 AM59 °FScattered clouds.6 mph63%29.98 "HgN/A
9:50 AM59 °FScattered clouds.6 mph63%29.98 "HgN/A
9:20 AM55 °FScattered clouds.5 mph67%29.98 "HgN/A
8:50 AM54 °FScattered clouds.6 mph67%29.98 "HgN/A
8:20 AM52 °FScattered clouds.7 mph72%29.95 "HgN/A
7:50 AM50 °FScattered clouds.7 mph71%29.95 "HgN/A
7:20 AM45 °FPassing clouds.8 mph87%29.95 "HgN/A
6:50 AM45 °FPassing clouds.8 mph87%29.95 "HgN/A
6:20 AM46 °FPassing clouds.6 mph82%29.92 "HgN/A
5:20 AM46 °FPassing clouds.7 mph82%29.92 "HgN/A
4:50 AM46 °FPassing clouds.8 mph82%29.92 "HgN/A
4:20 AM50 °FPassing clouds.7 mph82%29.92 "HgN/A
3:50 AM50 °FPassing clouds.6 mph82%29.92 "HgN/A
2:50 AM50 °FPassing clouds.6 mph82%29.92 "HgN/A
2:20 AM50 °FPassing clouds.7 mph82%29.92 "HgN/A
1:50 AM50 °FPassing clouds.5 mph82%29.92 "HgN/A
1:20 AM52 °FPassing clouds.6 mph82%29.89 "HgN/A
12:50 AM52 °FPassing clouds.5 mph82%29.89 "HgN/A
12:20 AM54 °FPassing clouds.5 mph82%29.89 "HgN/A
11:50 PM
Dec 27
54 °FPassing clouds.5 mph82%29.89 "HgN/A
11:20 PM54 °FPassing clouds.7 mph88%29.89 "HgN/A
10:50 PM54 °FPassing clouds.7 mph88%29.89 "HgN/A
10:20 PM52 °FPassing clouds.5 mph88%29.86 "HgN/A
Weather by CustomWeather, © 2014

See weather overviewHow to use our weather pages